Roros Lufthavn, Norway

10:50 PM CET on December 06, 2019 (GMT +0100)
Roros

Weather History for ENRO - October, 2019

Change the Weather History Date:

Saturday, October 19, 2019

  Actual Average Record
Temperature  
Mean Temperature 36 °F -  
Max Temperature 39 °F 36 °F 51 °F (2014)
Min Temperature 33 °F 26 °F -2 °F (2002)
Degree Days  
Heating Degree Days 29    
Moisture  
Dew Point 35 °F    
Average Humidity 94    
Maximum Humidity 100    
Minimum Humidity 81    
Precipitation  
Precipitation 0.00 in - - ()
Sea Level Pressure  
Sea Level Pressure 29.62 in    
Wind  
Wind Speed 5 mph ()    
Max Wind Speed 10 mph    
Max Gust Speed -    
Visibility 6.2 miles    
Events Rain , Snow    
Averages and records for this station are not official NWS values.
T = Trace of Precipitation, MM = Missing Value Source: Averaged Metar Reports

Daily Weather History Graph

Daily Weather History Graph

Search for Another Location

Airport or City:

Astronomy

Oct. 19, 2019 Rise Set
Actual Time 8:10 AM CEST 5:47 PM CEST
Civil Twilight 7:23 AM CEST 6:34 PM CEST
Nautical Twilight 6:31 AM CEST 7:26 PM CEST
Astronomical Twilight 5:38 AM CEST 8:18 PM CEST
Moon 8:06 PM CEST (10/19) 3:00 PM CEST (10/19)
Length of Visible Light 11h 10m
Length of Day
9h 37m
Waning Gibbous, 72% of the Moon is Illuminated
Oct 19
Waning Gibbous
Oct 21
Last Quarter
Oct 28
New
Nov 4
First Quarter
Nov 12
Full

Hourly Weather History & Observations

Time (CEST) Temp. Windchill Dew Point Humidity Pressure Visibility Wind Dir Wind Speed Gust Speed Precip Events Conditions
12:20 AM 35.6 °F 29.9 °F 33.8 °F 93% 29.62 in 6.2 mi ESE 6.9 mph - N/A   Overcast
12:50 AM 35.6 °F 31.7 °F 33.8 °F 93% 29.62 in 6.2 mi SE 4.6 mph - N/A   Overcast
1:20 AM 35.6 °F 32.8 °F 33.8 °F 93% 29.62 in 6.2 mi SSW 3.5 mph - N/A   Overcast
1:50 AM 35.6 °F 32.8 °F 33.8 °F 93% 29.59 in 6.2 mi South 3.5 mph - N/A   Overcast
2:50 AM 35.6 °F - 35.6 °F 100% 29.59 in 6.2 mi Variable 2.3 mph - N/A   Overcast
3:20 AM 35.6 °F - 35.6 °F 100% 29.56 in 6.2 mi Variable 1.2 mph - N/A   Overcast
3:50 AM 35.6 °F - 35.6 °F 100% 29.56 in 6.2 mi Variable 2.3 mph - N/A   Overcast
4:20 AM 35.6 °F 31.7 °F 35.6 °F 100% 29.56 in 6.2 mi North 4.6 mph - N/A   Overcast
5:20 AM 35.6 °F 31.7 °F 35.6 °F 100% 29.56 in 6.2 mi North 4.6 mph - N/A   Overcast
5:50 AM 33.8 °F 30.8 °F 33.8 °F 100% 29.56 in 6.2 mi North 3.5 mph - N/A   Overcast
6:20 AM 35.6 °F 31.7 °F 35.6 °F 100% 29.56 in 6.2 mi North 4.6 mph - N/A   Mostly Cloudy
6:50 AM 35.6 °F 31.7 °F 35.6 °F 100% 29.53 in - NNE 4.6 mph - N/A   Overcast
7:20 AM 33.8 °F 29.6 °F 33.8 °F 100% 29.53 in 6.2 mi NNE 4.6 mph - N/A   Scattered Clouds
7:50 AM 33.8 °F 28.6 °F 33.8 °F 100% 29.53 in 6.2 mi North 5.8 mph - N/A   Mostly Cloudy
8:20 AM 33.8 °F 27.7 °F 33.8 °F 100% 29.56 in 6.2 mi North 6.9 mph - N/A   Overcast
8:50 AM 33.8 °F 27.7 °F 33.8 °F 100% 29.56 in 6.2 mi NNW 6.9 mph - N/A   Overcast
9:20 AM 35.6 °F 30.7 °F 33.8 °F 93% 29.56 in 6.2 mi NNW 5.8 mph - N/A   Overcast
10:20 AM 35.6 °F 29.9 °F 33.8 °F 93% 29.56 in 6.2 mi NNW 6.9 mph - N/A   Overcast
11:20 AM 37.4 °F 32.8 °F 33.8 °F 87% 29.56 in 6.2 mi North 5.8 mph - N/A   Overcast
11:50 AM 37.4 °F 32.1 °F 35.6 °F 93% 29.56 in 6.2 mi North 6.9 mph - N/A   Overcast
12:20 PM 37.4 °F 32.8 °F 35.6 °F 93% 29.56 in 6.2 mi NNW 5.8 mph - N/A   Overcast
12:50 PM 37.4 °F 32.1 °F 35.6 °F 93% 29.59 in 6.2 mi NNW 6.9 mph - N/A   Overcast
1:20 PM 39.2 °F 33.6 °F 35.6 °F 87% 29.59 in 6.2 mi North 8.1 mph - N/A   Overcast
1:50 PM 39.2 °F 33.0 °F 35.6 °F 87% 29.59 in 6.2 mi North 9.2 mph - N/A   Overcast
2:20 PM 39.2 °F 33.0 °F 37.4 °F 93% 29.59 in 6.2 mi North 9.2 mph - N/A   Overcast
2:50 PM 39.2 °F 33.0 °F 37.4 °F 93% 29.59 in 6.2 mi North 9.2 mph - N/A   Overcast
3:20 PM 39.2 °F 33.6 °F 37.4 °F 93% 29.59 in 6.2 mi North 8.1 mph - N/A   Overcast
3:50 PM 39.2 °F 35.0 °F 37.4 °F 93% 29.62 in 6.2 mi North 5.8 mph - N/A   Mostly Cloudy
4:20 PM 39.2 °F 35.0 °F 37.4 °F 93% 29.62 in 6.2 mi NE 5.8 mph - N/A   Overcast
4:50 PM 39.2 °F 34.2 °F 37.4 °F 93% 29.62 in 6.2 mi North 6.9 mph - N/A   Overcast
5:20 PM 39.2 °F 34.2 °F 35.6 °F 87% 29.65 in 6.2 mi NNE 6.9 mph - N/A Rain Light Rain Showers
5:50 PM 39.2 °F 33.6 °F 33.8 °F 81% 29.65 in 6.2 mi NE 8.1 mph - N/A Rain Light Rain Showers
6:20 PM 39.2 °F 33.6 °F 35.6 °F 87% 29.65 in 6.2 mi NE 8.1 mph - N/A   Light Drizzle
6:50 PM 37.4 °F 33.8 °F 35.6 °F 93% 29.68 in 6.2 mi NNE 4.6 mph - N/A   Light Drizzle
7:20 PM 37.4 °F 32.1 °F 35.6 °F 93% 29.68 in 6.2 mi North 6.9 mph - N/A   Light Drizzle
7:50 PM 37.4 °F 31.4 °F 35.6 °F 93% 29.71 in 6.2 mi NNE 8.1 mph - N/A   Light Drizzle
8:20 PM 35.6 °F 28.0 °F 33.8 °F 93% 29.71 in 6.2 mi NE 10.4 mph - N/A   Light Drizzle
8:50 PM 35.6 °F 28.0 °F 33.8 °F 93% 29.71 in 6.2 mi NE 10.4 mph - N/A Rain Light Rain
9:20 PM 35.6 °F 28.0 °F 32.0 °F 87% 29.74 in 6.2 mi NE 10.4 mph - N/A   Overcast
9:50 PM 35.6 °F 29.2 °F 32.0 °F 87% 29.74 in 6.2 mi NE 8.1 mph - N/A Rain Light Rain Showers
10:20 PM 35.6 °F 28.6 °F 32.0 °F 87% 29.77 in 6.2 mi East 9.2 mph - N/A Rain Light Rain Showers
10:50 PM 33.8 °F 26.4 °F 32.0 °F 93% 29.77 in 6.2 mi East 9.2 mph - N/A Snow Light Snow
11:20 PM 33.8 °F 27.0 °F 32.0 °F 93% 29.77 in 6.2 mi East 8.1 mph - N/A Snow Light Snow
11:50 PM 33.8 °F 27.7 °F 32.0 °F 93% 29.80 in 5.0 mi ENE 6.9 mph - N/A Rain , Snow Light Rain